星链-11190 (STARLINK-11190)

导读 | 星芒AI

STARLINK-11190 是 SpaceX Starlink 卫星互联网项目中的一颗低轨卫星,属于第二代星链卫星群。该卫星于2023年发射,旨在为全球用户提供高速、低延迟的宽带互联网服务。它运行在约550公里高的近地轨道,采用先进推进系统和激光通信技术,以提升网络效率和覆盖范围。作为 Starlink 计划的重要组成部分,STARLINK-11190 有助于扩大卫星互联网的可用性,特别是在偏远和网络基础设施薄弱的地区。

基本信息
目录编号:
60911
目录名称:
STARLINK-11190
国际标识:
2024-154J
轨道中心:
EARTH
卫星名称:
星链-11190
卫星全名:
星链-11190 (STARLINK-11190)
卫星状态:
在轨 (已飞行424 天)
发射日期:
2024-08-31 UTC
国别 :
美国 (US)
星等 :
--
轨道信息
数据来源 国际轨道数据
星历时间: 2025-10-28T20:13:54+0800
21小时前
查看轨道信息
半长轴: 6737.866km
偏心率: 0.000076
轨道倾角: 53.159°
近地点辐角 62.048°
升交点赤经 62.891°
平近点角 298.061°
近地点: 359.218km
远地点: 360.244km
周期: 91.737分钟
每日圈数: 15.697093
详细信息
固有亮度:
5
最大亮度:
2.5
卫星平台:
Starlink V1.0
覆盖范围:
全球
运营商:
太空探索技术公司
运营商所在国:
美国
制造商(研发单位):
太空探索技术公司
制造商所在国:
美国
使用方式:
暂无
卫星简介
Starlink 计划是 SpaceX 推出的全球卫星互联网项目,通过发射低轨道卫星,为全球尤其是偏远地区提供高速、低延迟的互联网服务。自 2019 年起,Starlink 已部署数千颗卫星,旨在缩小全球数字鸿沟,推动互联网普及。该项目还为军事、航空等行业提供通信支持,带来广泛经济效益。
2D轨道图
3D轨道图
轨道高度分析图
轨道倾角分析图
轨道综合分析图
查看轨道综合分析图